| time (UTC) | temp F | wind direction | speed MPH | gust MPH | rain 1hr in | rain 24hr in | rain mn in | humidity % | barometer mb |
| 20260906111058 | 76 | 153 | 6.0 | 16.0 | 0.00 | 0.00 | 0.00 | 57 | 1019.7 |
| 20260906110559 | 76 | 237 | 8.0 | 16.0 | 0.00 | 0.00 | 0.00 | 56 | 1019.7 |
| 20260906105559 | 76 | 198 | 6.0 | 18.0 | 0.00 | 0.00 | 0.00 | 58 | 1019.8 |
| 20260906105058 | 76 | 180 | 9.0 | 16.0 | 0.00 | 0.00 | 0.00 | 59 | 1020.1 |
| 20260906104605 | 76 | 184 | 5.0 | 15.0 | 0.00 | 0.00 | 0.00 | 59 | 1020.1 |
| 20260906104058 | 75 | 186 | 6.0 | 16.0 | 0.00 | 0.00 | 0.00 | 61 | 1020.0 |
| 20260906103559 | 75 | 228 | 6.0 | 16.0 | 0.00 | 0.00 | 0.00 | 62 | 1020.1 |
| 20260906103111 | 74 | 141 | 6.0 | 15.0 | 0.00 | 0.00 | 0.00 | 63 | 1020.2 |
| 20260906102602 | 74 | 174 | 8.0 | 15.0 | 0.00 | 0.00 | 0.00 | 64 | 1020.3 |
| 20260906102059 | 73 | 193 | 7.0 | 14.0 | 0.00 | 0.00 | 0.00 | 65 | 1020.3 |
| 20260906101604 | 72 | 188 | 6.0 | 14.0 | 0.00 | 0.00 | 0.00 | 66 | 1020.5 |
| 20260906101058 | 71 | 155 | 5.0 | 11.0 | 0.00 | 0.00 | 0.00 | 67 | 1020.5 |
| 20260906100559 | 71 | 167 | 5.0 | 14.0 | 0.00 | 0.00 | 0.00 | 67 | 1020.5 |
| 20260906095559 | 72 | 184 | 6.0 | 14.0 | 0.00 | 0.00 | 0.00 | 68 | 1020.6 |
| 20260906095059 | 72 | 177 | 5.0 | 14.0 | 0.00 | 0.00 | 0.00 | 68 | 1020.6 |
| 20260906094605 | 72 | 134 | 6.0 | 12.0 | 0.00 | 0.00 | 0.00 | 69 | 1020.7 |
| 20260906094058 | 72 | 192 | 5.0 | 12.0 | 0.00 | 0.00 | 0.00 | 70 | 1020.6 |
| 20260906093559 | 71 | 157 | 7.0 | 13.0 | 0.00 | 0.00 | 0.00 | 69 | 1020.6 |
| 20260906093108 | 71 | 121 | 4.0 | 13.0 | 0.00 | 0.00 | 0.00 | 70 | 1020.7 |
| 20260906092556 | 71 | 198 | 6.0 | 14.0 | 0.00 | 0.00 | 0.00 | 70 | 1020.6 |
| 20260906092101 | 70 | 157 | 6.0 | 14.0 | 0.00 | 0.00 | 0.00 | 71 | 1020.7 |
| 20260906091605 | 70 | 132 | 4.0 | 14.0 | 0.00 | 0.00 | 0.00 | 71 | 1020.9 |
| 20260906091102 | 70 | 163 | 5.0 | 13.0 | 0.00 | 0.00 | 0.00 | 74 | 1021.1 |
| 20260906090557 | 69 | 158 | 4.0 | 10.0 | 0.00 | 0.00 | 0.00 | 72 | 1020.9 |
| 20260906090104 | 69 | 170 | 5.0 | 12.0 | 0.00 | 0.00 | 0.00 | 74 | 1021.0 |
| 20260906085558 | 68 | 123 | 4.0 | 12.0 | 0.00 | 0.00 | 0.00 | 74 | 1021.1 |
| 20260906085059 | 68 | 198 | 5.0 | 12.0 | 0.00 | 0.00 | 0.00 | 76 | 1021.0 |
| 20260906084608 | 68 | 146 | 4.0 | 12.0 | 0.00 | 0.00 | 0.00 | 75 | 1021.1 |
| 20260906084058 | 67 | 130 | 4.0 | 9.0 | 0.00 | 0.00 | 0.00 | 76 | 1021.2 |
| 20260906083604 | 67 | 132 | 5.0 | 11.0 | 0.00 | 0.00 | 0.00 | 76 | 1021.3 |
| 20260906083106 | 66 | 185 | 4.0 | 11.0 | 0.00 | 0.00 | 0.00 | 76 | 1021.3 |
| 20260906082556 | 66 | 119 | 6.0 | 11.0 | 0.00 | 0.00 | 0.00 | 75 | 1021.3 |
| 20260906082059 | 66 | 184 | 5.0 | 12.0 | 0.00 | 0.00 | 0.00 | 76 | 1021.3 |
| 20260906081603 | 66 | 155 | 6.0 | 15.0 | 0.00 | 0.00 | 0.00 | 76 | 1021.4 |
| 20260906081106 | 65 | 148 | 4.0 | 15.0 | 0.00 | 0.00 | 0.00 | 76 | 1021.3 |
| 20260906080601 | 65 | 144 | 5.0 | 14.0 | 0.00 | 0.00 | 0.00 | 76 | 1021.2 |
| 20260906080107 | 65 | 184 | 4.0 | 13.0 | 0.00 | 0.00 | 0.00 | 77 | 1021.1 |
| 20260906075559 | 64 | 126 | 4.0 | 11.0 | 0.00 | 0.00 | 0.00 | 78 | 1021.0 |
| 20260906075100 | 63 | 132 | 6.0 | 11.0 | 0.00 | 0.00 | 0.00 | 78 | 1020.9 |
| 20260906074603 | 63 | 166 | 5.0 | 11.0 | 0.00 | 0.00 | 0.00 | 79 | 1020.8 |
| 20260906074058 | 63 | 159 | 5.0 | 11.0 | 0.00 | 0.00 | 0.00 | 79 | 1020.9 |
| 20260906073559 | 62 | 154 | 4.0 | 10.0 | 0.00 | 0.00 | 0.00 | 79 | 1020.9 |
| 20260906073106 | 62 | 155 | 5.0 | 11.0 | 0.00 | 0.00 | 0.00 | 80 | 1021.0 |
| 20260906072559 | 61 | 165 | 3.0 | 11.0 | 0.00 | 0.00 | 0.00 | 80 | 1021.0 |
| 20260906072056 | 61 | 173 | 5.0 | 11.0 | 0.00 | 0.00 | 0.00 | 80 | 1021.0 |
| 20260906071602 | 61 | 115 | 6.0 | 11.0 | 0.00 | 0.00 | 0.00 | 80 | 1021.1 |
| 20260906071059 | 61 | 139 | 6.0 | 11.0 | 0.00 | 0.00 | 0.00 | 80 | 1021.0 |
| 20260906070559 | 60 | 149 | 5.0 | 11.0 | 0.00 | 0.00 | 0.00 | 81 | 1021.1 |
| 20260906070104 | 60 | 72 | 5.0 | 12.0 | 0.00 | 0.00 | 0.00 | 82 | 1021.2 |
| 20260906065602 | 59 | 96 | 5.0 | 12.0 | 0.00 | 0.00 | 0.00 | 83 | 1021.2 |
| 20260906065059 | 58 | 144 | 6.0 | 13.0 | 0.00 | 0.00 | 0.00 | 84 | 1021.3 |
| 20260906064606 | 58 | 111 | 5.0 | 13.0 | 0.00 | 0.00 | 0.00 | 84 | 1021.2 |
| 20260906064100 | 57 | 119 | 5.0 | 11.0 | 0.00 | 0.00 | 0.00 | 85 | 1021.1 |
| 20260906063602 | 57 | 137 | 4.0 | 11.0 | 0.00 | 0.00 | 0.00 | 85 | 1021.1 |
| 20260906063104 | 57 | 126 | 4.0 | 11.0 | 0.00 | 0.00 | 0.00 | 85 | 1021.1 |
| 20260906062600 | 57 | 144 | 5.0 | 11.0 | 0.00 | 0.00 | 0.00 | 85 | 1021.3 |
| 20260906062059 | 57 | 138 | 5.0 | 8.0 | 0.00 | 0.00 | 0.00 | 84 | 1021.3 |
| 20260906061607 | 57 | 153 | 4.0 | 10.0 | 0.00 | 0.00 | 0.00 | 84 | 1021.3 |
| 20260906061058 | 57 | 104 | 5.0 | 10.0 | 0.00 | 0.00 | 0.00 | 84 | 1021.4 |
| 20260906060559 | 58 | 140 | 3.0 | 11.0 | 0.00 | 0.00 | 0.00 | 84 | 1021.5 |
| 20260906060106 | 58 | 166 | 3.0 | 11.0 | 0.00 | 0.00 | 0.00 | 84 | 1021.4 |
| 20260906055559 | 58 | 130 | 4.0 | 10.0 | 0.00 | 0.00 | 0.00 | 84 | 1021.5 |
| 20260906055059 | 57 | 115 | 2.0 | 8.0 | 0.00 | 0.00 | 0.00 | 85 | 1021.5 |
| 20260906054608 | 57 | 107 | 2.0 | 10.0 | 0.00 | 0.00 | 0.00 | 85 | 1021.4 |
| 20260906054059 | 57 | 157 | 3.0 | 10.0 | 0.00 | 0.00 | 0.00 | 85 | 1021.7 |
| 20260906053559 | 57 | 131 | 2.0 | 8.0 | 0.00 | 0.00 | 0.00 | 84 | 1021.7 |
| 20260906053105 | 57 | 127 | 3.0 | 9.0 | 0.00 | 0.00 | 0.00 | 84 | 1021.8 |
| 20260906052558 | 57 | 119 | 4.0 | 9.0 | 0.00 | 0.00 | 0.00 | 85 | 1021.7 |
| 20260906052057 | 57 | 134 | 3.0 | 9.0 | 0.00 | 0.00 | 0.00 | 85 | 1021.7 |
| 20260906051614 | 57 | 168 | 4.0 | 10.0 | 0.00 | 0.00 | 0.00 | 85 | 1021.6 |
| 20260906051059 | 57 | 104 | 4.0 | 10.0 | 0.00 | 0.00 | 0.00 | 85 | 1021.8 |
| 20260906050601 | 57 | 146 | 3.0 | 10.0 | 0.00 | 0.00 | 0.00 | 84 | 1021.8 |
| 20260906050105 | 57 | 157 | 4.0 | 9.0 | 0.00 | 0.00 | 0.00 | 84 | 1021.9 |
| 20260906045559 | 57 | 123 | 3.0 | 8.0 | 0.00 | 0.00 | 0.00 | 84 | 1021.8 |
| 20260906045103 | 57 | 115 | 2.0 | 8.0 | 0.00 | 0.00 | 0.00 | 84 | 1021.8 |
| 20260906044610 | 57 | 113 | 2.0 | 8.0 | 0.00 | 0.00 | 0.00 | 84 | 1022.1 |
| 20260906044059 | 57 | 144 | 2.0 | 9.0 | 0.00 | 0.00 | 0.00 | 84 | 1022.1 |
| 20260906043556 | 57 | 129 | 2.0 | 9.0 | 0.00 | 0.00 | 0.00 | 83 | 1022.2 |
| 20260906043104 | 57 | 126 | 2.0 | 7.0 | 0.00 | 0.00 | 0.00 | 83 | 1022.2 |
| 20260906042557 | 58 | 136 | 3.0 | 7.0 | 0.00 | 0.00 | 0.00 | 83 | 1022.3 |
| 20260906042056 | 58 | 123 | 2.0 | 7.0 | 0.00 | 0.00 | 0.00 | 83 | 1022.4 |
| 20260906041605 | 58 | 129 | 2.0 | 8.0 | 0.00 | 0.00 | 0.00 | 83 | 1022.6 |
| 20260906041059 | 58 | 123 | 3.0 | 8.0 | 0.00 | 0.00 | 0.00 | 83 | 1022.4 |
| 20260906040559 | 58 | 97 | 3.0 | 9.0 | 0.00 | 0.00 | 0.00 | 83 | 1022.6 |
| 20260906040140 | 58 | 84 | 2.0 | 9.0 | 0.00 | 0.00 | 0.00 | 83 | 1022.6 |
| 20260906035558 | 58 | 114 | 1.0 | 7.0 | 0.00 | 0.00 | 0.00 | 83 | 1022.7 |
| 20260906035056 | 58 | 132 | 2.0 | 7.0 | 0.00 | 0.00 | 0.00 | 83 | 1022.7 |
| 20260906034620 | 58 | 79 | 2.0 | 7.0 | 0.00 | 0.00 | 0.00 | 84 | 1022.8 |
| 20260906034057 | 58 | 143 | 2.0 | 7.0 | 0.00 | 0.00 | 0.00 | 83 | 1022.8 |
| 20260906033556 | 58 | 157 | 2.0 | 5.0 | 0.00 | 0.00 | 0.00 | 84 | 1022.9 |
| 20260906033108 | 58 | 126 | 1.0 | 6.0 | 0.00 | 0.00 | 0.00 | 84 | 1023.0 |
| 20260906032558 | 58 | 133 | 2.0 | 6.0 | 0.00 | 0.00 | 0.00 | 84 | 1023.3 |
| 20260906032100 | 58 | 99 | 2.0 | 6.0 | 0.00 | 0.00 | 0.00 | 84 | 1023.2 |
| 20260906031607 | 58 | 121 | 2.0 | 6.0 | 0.00 | 0.00 | 0.00 | 84 | 1023.2 |
| 20260906031059 | 58 | 164 | 3.0 | 6.0 | 0.00 | 0.00 | 0.00 | 84 | 1023.4 |
| 20260906030600 | 58 | 153 | 2.0 | 6.0 | 0.00 | 0.00 | 0.00 | 84 | 1023.4 |
| 20260906030108 | 58 | 0 | 1.0 | 6.0 | 0.00 | 0.00 | 0.00 | 84 | 1023.6 |
| 20260906025558 | 58 | 127 | 1.0 | 4.0 | 0.00 | 0.00 | 0.00 | 84 | 1023.5 |
| 20260906025059 | 58 | 113 | 2.0 | 4.0 | 0.00 | 0.00 | 0.00 | 84 | 1023.5 |
| 20260906024615 | 58 | 139 | 2.0 | 6.0 | 0.00 | 0.00 | 0.00 | 84 | 1023.6 |
| 20260906024056 | 58 | 147 | 2.0 | 6.0 | 0.00 | 0.00 | 0.00 | 84 | 1023.5 |
| 20260906023559 | 58 | 158 | 1.0 | 4.0 | 0.00 | 0.00 | 0.00 | 84 | 1023.7 |
| 20260906023106 | 58 | 134 | 1.0 | 4.0 | 0.00 | 0.00 | 0.00 | 84 | 1023.7 |
| 20260906022558 | 58 | 109 | 2.0 | 6.0 | 0.00 | 0.00 | 0.00 | 84 | 1023.7 |
| 20260906022059 | 58 | 150 | 1.0 | 6.0 | 0.00 | 0.00 | 0.00 | 84 | 1023.8 |
| 20260906021620 | 58 | 161 | 1.0 | 5.0 | 0.00 | 0.00 | 0.00 | 84 | 1023.9 |
| 20260906021059 | 58 | 0 | 0.0 | 4.0 | 0.00 | 0.00 | 0.00 | 84 | 1023.8 |
| 20260906020559 | 58 | 0 | 0.0 | 4.0 | 0.00 | 0.00 | 0.00 | 84 | 1023.9 |
| 20260906020106 | 58 | 150 | 1.0 | 4.0 | 0.00 | 0.00 | 0.00 | 84 | 1024.0 |
| 20260906015559 | 58 | 146 | 1.0 | 4.0 | 0.00 | 0.00 | 0.00 | 84 | 1023.9 |
| 20260906015058 | 58 | 146 | 1.0 | 5.0 | 0.00 | 0.00 | 0.00 | 83 | 1023.9 |
| 20260906014603 | 58 | 113 | 1.0 | 5.0 | 0.00 | 0.00 | 0.00 | 82 | 1023.9 |
| 20260906014059 | 58 | 150 | 1.0 | 4.0 | 0.00 | 0.00 | 0.00 | 82 | 1024.0 |
| 20260906013602 | 58 | 167 | 2.0 | 4.0 | 0.00 | 0.00 | 0.00 | 82 | 1023.9 |
| 20260906013122 | 58 | 0 | 1.0 | 4.0 | 0.00 | 0.00 | 0.00 | 81 | 1023.9 |
| 20260906012559 | 58 | 106 | 1.0 | 5.0 | 0.00 | 0.00 | 0.00 | 81 | 1023.9 |
| 20260906012059 | 59 | 142 | 2.0 | 5.0 | 0.00 | 0.00 | 0.00 | 82 | 1023.9 |
| 20260906011608 | 58 | 131 | 2.0 | 5.0 | 0.00 | 0.00 | 0.00 | 81 | 1024.0 |
| 20260906011059 | 58 | 137 | 2.0 | 5.0 | 0.00 | 0.00 | 0.00 | 81 | 1024.2 |
| 20260906010556 | 58 | 0 | 2.0 | 6.0 | 0.00 | 0.00 | 0.00 | 81 | 1024.1 |
| 20260906010106 | 58 | 160 | 2.0 | 6.0 | 0.00 | 0.00 | 0.00 | 81 | 1024.2 |
| 20260906005556 | 58 | 130 | 2.0 | 8.0 | 0.00 | 0.00 | 0.00 | 81 | 1024.3 |
| 20260906005058 | 58 | 138 | 3.0 | 8.0 | 0.00 | 0.00 | 0.00 | 81 | 1024.3 |
| 20260906004607 | 58 | 144 | 2.0 | 7.0 | 0.00 | 0.00 | 0.00 | 82 | 1024.4 |
| 20260906004056 | 58 | 114 | 2.0 | 5.0 | 0.00 | 0.00 | 0.00 | 82 | 1024.4 |
| 20260906003556 | 58 | 132 | 1.0 | 5.0 | 0.00 | 0.00 | 0.00 | 82 | 1024.5 |
| 20260906003102 | 58 | 162 | 2.0 | 4.0 | 0.00 | 0.00 | 0.00 | 82 | 1024.6 |
| 20260906002601 | 58 | 146 | 2.0 | 4.0 | 0.00 | 0.00 | 0.00 | 82 | 1024.7 |
| 20260906002059 | 58 | 131 | 2.0 | 5.0 | 0.00 | 0.00 | 0.00 | 82 | 1024.8 |
| 20260906001610 | 58 | 140 | 2.0 | 5.0 | 0.00 | 0.00 | 0.00 | 82 | 1024.8 |
| 20260906001100 | 58 | 133 | 2.0 | 5.0 | 0.00 | 0.00 | 0.00 | 82 | 1024.9 |
| 20260906000559 | 58 | 135 | 2.0 | 4.0 | 0.00 | 0.00 | 0.00 | 82 | 1024.9 |
| 20260906000108 | 58 | 172 | 1.0 | 4.0 | 0.00 | 0.00 | 0.00 | 82 | 1024.9 |
| 20260905235603 | 58 | 132 | 1.0 | 7.0 | 0.00 | 0.00 | 0.00 | 82 | 1025.1 |
| 20260905235059 | 58 | 161 | 3.0 | 7.0 | 0.00 | 0.00 | 0.00 | 82 | 1025.1 |
| 20260905234603 | 58 | 133 | 2.0 | 6.0 | 0.00 | 0.00 | 0.00 | 82 | 1025.2 |
| 20260905234059 | 58 | 131 | 1.0 | 5.0 | 0.00 | 0.00 | 0.00 | 82 | 1025.3 |
| 20260905233557 | 58 | 69 | 1.0 | 4.0 | 0.00 | 0.00 | 0.00 | 82 | 1025.3 |
| 20260905233104 | 58 | 100 | 2.0 | 4.0 | 0.00 | 0.00 | 0.00 | 81 | 1025.2 |
| 20260905232556 | 58 | 126 | 2.0 | 6.0 | 0.00 | 0.00 | 0.00 | 81 | 1025.3 |
| 20260905232058 | 58 | 132 | 2.0 | 6.0 | 0.00 | 0.00 | 0.00 | 81 | 1025.1 |
| 20260905231608 | 58 | 140 | 3.0 | 7.0 | 0.00 | 0.00 | 0.00 | 81 | 1025.2 |
| 20260905231056 | 58 | 153 | 3.0 | 7.0 | 0.00 | 0.00 | 0.00 | 82 | 1025.1 |
| 20260905230556 | 57 | 152 | 2.0 | 5.0 | 0.00 | 0.00 | 0.00 | 83 | 1025.1 |
| 20260905230109 | 57 | 165 | 1.0 | 3.0 | 0.00 | 0.00 | 0.00 | 84 | 1025.2 |
| 20260905225556 | 57 | 152 | 1.0 | 4.0 | 0.00 | 0.00 | 0.00 | 85 | 1025.2 |
| 20260905225056 | 57 | 123 | 1.0 | 4.0 | 0.00 | 0.00 | 0.00 | 85 | 1025.2 |
| 20260905224619 | 57 | 132 | 1.0 | 2.0 | 0.00 | 0.00 | 0.00 | 85 | 1025.2 |
| 20260905224059 | 57 | 48 | 0.0 | 2.0 | 0.00 | 0.00 | 0.00 | 86 | 1025.2 |
| 20260905223600 | 57 | 48 | 1.0 | 2.0 | 0.00 | 0.00 | 0.00 | 85 | 1025.0 |
| 20260905223118 | 57 | 48 | 0.0 | 1.0 | 0.00 | 0.00 | 0.00 | 85 | 1025.1 |
| 20260905222558 | 57 | 0 | 0.0 | 2.0 | 0.00 | 0.00 | 0.00 | 85 | 1025.1 |
| 20260905222056 | 57 | 0 | 0.0 | 2.0 | 0.00 | 0.00 | 0.00 | 85 | 1025.1 |
| 20260905221606 | 57 | 0 | 0.0 | 2.0 | 0.00 | 0.00 | 0.00 | 85 | 1025.0 |
| 20260905221056 | 57 | 48 | 0.0 | 2.0 | 0.00 | 0.00 | 0.00 | 84 | 1025.1 |
| 20260905220556 | 57 | 48 | 1.0 | 2.0 | 0.00 | 0.00 | 0.00 | 85 | 1025.1 |
| 20260905220103 | 57 | 48 | 0.0 | 2.0 | 0.00 | 0.00 | 0.00 | 84 | 1025.2 |
| 20260905215556 | 57 | 0 | 0.0 | 2.0 | 0.00 | 0.00 | 0.00 | 84 | 1025.3 |
| 20260905215100 | 57 | 48 | 0.0 | 2.0 | 0.00 | 0.00 | 0.00 | 84 | 1025.2 |
| 20260905214604 | 57 | 48 | 0.0 | 2.0 | 0.00 | 0.00 | 0.00 | 84 | 1025.3 |
| 20260905214056 | 57 | 0 | 0.0 | 2.0 | 0.00 | 0.00 | 0.00 | 84 | 1025.4 |
| 20260905213559 | 57 | 48 | 1.0 | 2.0 | 0.00 | 0.00 | 0.00 | 84 | 1025.3 |
| 20260905213107 | 57 | 0 | 0.0 | 0.0 | 0.00 | 0.00 | 0.00 | 84 | 1025.3 |
| 20260905212557 | 57 | 0 | 0.0 | 0.0 | 0.00 | 0.00 | 0.00 | 84 | 1025.5 |
| 20260905212058 | 57 | 0 | 0.0 | 0.0 | 0.00 | 0.00 | 0.00 | 82 | 1025.4 |
| 20260905211604 | 57 | 0 | 0.0 | 0.0 | 0.00 | 0.00 | 0.00 | 81 | 1025.5 |
| 20260905211056 | 57 | 0 | 0.0 | 0.0 | 0.00 | 0.00 | 0.00 | 80 | 1025.4 |
| 20260905210556 | 58 | 0 | 0.0 | 0.0 | 0.00 | 0.00 | 0.00 | 80 | 1025.4 |
| 20260905210107 | 58 | 0 | 0.0 | 0.0 | 0.00 | 0.00 | 0.00 | 81 | 1025.4 |
| 20260905205558 | 58 | 0 | 0.0 | 2.0 | 0.00 | 0.00 | 0.00 | 80 | 1025.3 |
| 20260905205056 | 58 | 0 | 0.0 | 3.0 | 0.00 | 0.00 | 0.00 | 79 | 1025.1 |
| 20260905204606 | 59 | 0 | 1.0 | 3.0 | 0.00 | 0.00 | 0.00 | 79 | 1025.1 |
| 20260905204058 | 59 | 48 | 1.0 | 3.0 | 0.00 | 0.00 | 0.00 | 80 | 1025.1 |
| 20260905203600 | 58 | 273 | 1.0 | 2.0 | 0.00 | 0.00 | 0.00 | 80 | 1025.2 |
| 20260905203105 | 58 | 0 | 0.0 | 2.0 | 0.00 | 0.00 | 0.00 | 80 | 1025.1 |
| 20260905202555 | 58 | 273 | 1.0 | 2.0 | 0.00 | 0.00 | 0.00 | 80 | 1025.1 |
| 20260905202056 | 58 | 273 | 0.0 | 2.0 | 0.00 | 0.00 | 0.00 | 81 | 1025.2 |
| 20260905201610 | 58 | 0 | 0.0 | 1.0 | 0.00 | 0.00 | 0.00 | 80 | 1025.3 |
| 20260905201056 | 58 | 0 | 0.0 | 0.0 | 0.00 | 0.00 | 0.00 | 80 | 1025.2 |
| 20260905200556 | 59 | 0 | 0.0 | 1.0 | 0.00 | 0.00 | 0.00 | 79 | 1025.2 |
| 20260905200109 | 59 | 0 | 0.0 | 1.0 | 0.00 | 0.00 | 0.00 | 78 | 1025.1 |
| 20260905195558 | 59 | 273 | 0.0 | 2.0 | 0.00 | 0.00 | 0.00 | 77 | 1025.2 |
| 20260905195059 | 59 | 0 | 1.0 | 2.0 | 0.00 | 0.00 | 0.00 | 77 | 1025.1 |
| 20260905194608 | 59 | 273 | 1.0 | 2.0 | 0.00 | 0.00 | 0.00 | 77 | 1025.1 |
| 20260905194056 | 59 | 0 | 0.0 | 1.0 | 0.00 | 0.00 | 0.00 | 77 | 1025.1 |
| 20260905193555 | 60 | 273 | 0.0 | 1.0 | 0.00 | 0.00 | 0.00 | 77 | 1025.3 |
| 20260905193104 | 60 | 273 | 0.0 | 2.0 | 0.00 | 0.00 | 0.00 | 76 | 1025.2 |
| 20260905192558 | 60 | 0 | 1.0 | 2.0 | 0.00 | 0.00 | 0.00 | 76 | 1025.1 |
| 20260905192055 | 60 | 273 | 0.0 | 1.0 | 0.00 | 0.00 | 0.00 | 76 | 1025.3 |
| 20260905191609 | 60 | 0 | 0.0 | 2.0 | 0.00 | 0.00 | 0.00 | 76 | 1025.2 |
| 20260905191059 | 60 | 0 | 0.0 | 2.0 | 0.00 | 0.00 | 0.00 | 75 | 1025.1 |
| 20260905190555 | 60 | 273 | 0.0 | 2.0 | 0.00 | 0.00 | 0.00 | 75 | 1025.1 |
| 20260905190105 | 60 | 273 | 0.0 | 2.0 | 0.00 | 0.00 | 0.00 | 75 | 1025.2 |
| 20260905185555 | 60 | 0 | 0.0 | 1.0 | 0.00 | 0.00 | 0.00 | 74 | 1025.2 |
| 20260905185055 | 61 | 0 | 0.0 | 1.0 | 0.00 | 0.00 | 0.00 | 74 | 1025.2 |
| 20260905184609 | 61 | 0 | 0.0 | 1.0 | 0.00 | 0.00 | 0.00 | 74 | 1025.2 |
| 20260905184059 | 61 | 0 | 0.0 | 2.0 | 0.00 | 0.00 | 0.00 | 72 | 1025.1 |
| 20260905183556 | 61 | 0 | 0.0 | 2.0 | 0.00 | 0.00 | 0.00 | 72 | 1025.1 |
| 20260905183109 | 61 | 0 | 1.0 | 3.0 | 0.00 | 0.00 | 0.00 | 71 | 1025.3 |
| 20260905182558 | 62 | 279 | 1.0 | 3.0 | 0.00 | 0.00 | 0.00 | 71 | 1025.1 |
| 20260905182056 | 62 | 279 | 1.0 | 3.0 | 0.00 | 0.00 | 0.00 | 70 | 1025.0 |
| 20260905181604 | 63 | 290 | 1.0 | 4.0 | 0.00 | 0.00 | 0.00 | 69 | 1025.1 |
| 20260905181059 | 63 | 288 | 2.0 | 4.0 | 0.00 | 0.00 | 0.00 | 68 | 1025.0 |
| 20260905180559 | 64 | 290 | 2.0 | 6.0 | 0.00 | 0.00 | 0.00 | 67 | 1025.2 |
| 20260905180106 | 64 | 283 | 2.0 | 6.0 | 0.00 | 0.00 | 0.00 | 66 | 1025.3 |
| 20260905175556 | 65 | 300 | 3.0 | 7.0 | 0.00 | 0.00 | 0.00 | 65 | 1025.4 |
| 20260905175057 | 66 | 300 | 3.0 | 7.0 | 0.00 | 0.00 | 0.00 | 63 | 1025.1 |
| 20260905174603 | 66 | 301 | 3.0 | 8.0 | 0.00 | 0.00 | 0.00 | 62 | 1025.1 |
| 20260905174100 | 67 | 330 | 3.0 | 10.0 | 0.00 | 0.00 | 0.00 | 62 | 1025.1 |
| 20260905173556 | 67 | 295 | 6.0 | 10.0 | 0.00 | 0.00 | 0.00 | 62 | 1025.2 |
| 20260905173131 | 67 | 284 | 4.0 | 10.0 | 0.00 | 0.00 | 0.00 | 62 | 1025.2 |
| 20260905172600 | 67 | 289 | 4.0 | 10.0 | 0.00 | 0.00 | 0.00 | 63 | 1025.2 |
| 20260905172059 | 67 | 292 | 7.0 | 10.0 | 0.00 | 0.00 | 0.00 | 62 | 1025.2 |
| 20260905171604 | 67 | 298 | 6.0 | 10.0 | 0.00 | 0.00 | 0.00 | 62 | 1025.2 |
| 20260905171056 | 67 | 275 | 6.0 | 12.0 | 0.00 | 0.00 | 0.00 | 61 | 1025.3 |
| 20260905170556 | 67 | 294 | 7.0 | 12.0 | 0.00 | 0.00 | 0.00 | 60 | 1025.2 |
| 20260905170113 | 68 | 295 | 6.0 | 13.0 | 0.00 | 0.00 | 0.00 | 60 | 1025.1 |
| 20260905165555 | 68 | 267 | 7.0 | 13.0 | 0.00 | 0.00 | 0.00 | 61 | 1025.0 |
| 20260905165056 | 68 | 323 | 6.0 | 10.0 | 0.00 | 0.00 | 0.00 | 59 | 1024.9 |
| 20260905164610 | 69 | 308 | 4.0 | 9.0 | 0.00 | 0.00 | 0.00 | 60 | 1025.0 |
| 20260905164056 | 69 | 274 | 4.0 | 8.0 | 0.00 | 0.00 | 0.00 | 60 | 1024.9 |
| 20260905163555 | 69 | 317 | 3.0 | 11.0 | 0.00 | 0.00 | 0.00 | 60 | 1024.9 |
| 20260905163122 | 69 | 319 | 5.0 | 11.0 | 0.00 | 0.00 | 0.00 | 60 | 1025.2 |
| 20260905162559 | 68 | 261 | 6.0 | 10.0 | 0.00 | 0.00 | 0.00 | 59 | 1025.1 |
| 20260905162056 | 68 | 290 | 4.0 | 9.0 | 0.00 | 0.00 | 0.00 | 59 | 1025.1 |
| 20260905161615 | 69 | 294 | 4.0 | 10.0 | 0.00 | 0.00 | 0.00 | 57 | 1025.2 |
| 20260905161056 | 69 | 318 | 5.0 | 10.0 | 0.00 | 0.00 | 0.00 | 58 | 1025.1 |
| 20260905160556 | 69 | 285 | 5.0 | 11.0 | 0.00 | 0.00 | 0.00 | 58 | 1025.2 |
| 20260905160101 | 69 | 299 | 4.0 | 12.0 | 0.00 | 0.00 | 0.00 | 59 | 1025.1 |
| 20260905155556 | 69 | 286 | 7.0 | 13.0 | 0.00 | 0.00 | 0.00 | 57 | 1025.2 |
| 20260905155058 | 69 | 321 | 6.0 | 13.0 | 0.00 | 0.00 | 0.00 | 59 | 1025.1 |
| 20260905154616 | 69 | 288 | 5.0 | 11.0 | 0.00 | 0.00 | 0.00 | 58 | 1025.2 |
| 20260905154102 | 69 | 282 | 6.0 | 11.0 | 0.00 | 0.00 | 0.00 | 57 | 1025.2 |
| 20260905153558 | 69 | 321 | 5.0 | 11.0 | 0.00 | 0.00 | 0.00 | 56 | 1025.1 |
| 20260905153102 | 69 | 308 | 6.0 | 14.0 | 0.00 | 0.00 | 0.00 | 58 | 1025.2 |
| 20260905152558 | 69 | 332 | 6.0 | 14.0 | 0.00 | 0.00 | 0.00 | 59 | 1025.4 |
| 20260905152058 | 69 | 275 | 6.0 | 14.0 | 0.00 | 0.00 | 0.00 | 58 | 1025.4 |
| 20260905151603 | 69 | 317 | 7.0 | 12.0 | 0.00 | 0.00 | 0.00 | 58 | 1025.3 |
| 20260905151059 | 69 | 333 | 5.0 | 12.0 | 0.00 | 0.00 | 0.00 | 58 | 1025.4 |
| 20260905150558 | 69 | 252 | 4.0 | 14.0 | 0.00 | 0.00 | 0.00 | 59 | 1025.3 |
| 20260905150109 | 69 | 290 | 7.0 | 14.0 | 0.00 | 0.00 | 0.00 | 57 | 1025.4 |
| 20260905145559 | 70 | 286 | 6.0 | 13.0 | 0.00 | 0.00 | 0.00 | 57 | 1025.4 |
| 20260905145058 | 70 | 289 | 5.0 | 12.0 | 0.00 | 0.00 | 0.00 | 58 | 1025.5 |
| 20260905144605 | 69 | 325 | 8.0 | 14.0 | 0.00 | 0.00 | 0.00 | 59 | 1025.6 |
| 20260905144058 | 70 | 291 | 5.0 | 14.0 | 0.00 | 0.00 | 0.00 | 57 | 1025.5 |
| 20260905143558 | 69 | 289 | 6.0 | 14.0 | 0.00 | 0.00 | 0.00 | 59 | 1025.7 |
| 20260905143110 | 69 | 286 | 7.0 | 15.0 | 0.00 | 0.00 | 0.00 | 60 | 1025.7 |
| 20260905142600 | 69 | 272 | 7.0 | 15.0 | 0.00 | 0.00 | 0.00 | 57 | 1025.7 |
| 20260905142058 | 69 | 294 | 9.0 | 15.0 | 0.00 | 0.00 | 0.00 | 58 | 1025.6 |
| 20260905141606 | 69 | 296 | 9.0 | 15.0 | 0.00 | 0.00 | 0.00 | 59 | 1025.7 |
| 20260905141058 | 69 | 261 | 5.0 | 13.0 | 0.00 | 0.00 | 0.00 | 56 | 1025.6 |
| 20260905140558 | 69 | 344 | 5.0 | 16.0 | 0.00 | 0.00 | 0.00 | 59 | 1025.7 |
| 20260905140105 | 69 | 360 | 5.0 | 16.0 | 0.00 | 0.00 | 0.00 | 58 | 1025.8 |
| 20260905135558 | 70 | 295 | 9.0 | 16.0 | 0.00 | 0.00 | 0.00 | 57 | 1025.8 |
| 20260905135102 | 70 | 331 | 5.0 | 13.0 | 0.00 | 0.00 | 0.00 | 59 | 1025.8 |
| 20260905134605 | 69 | 300 | 7.0 | 15.0 | 0.00 | 0.00 | 0.00 | 58 | 1025.8 |
| 20260905134058 | 70 | 271 | 5.0 | 15.0 | 0.00 | 0.00 | 0.00 | 59 | 1025.8 |
| 20260905133558 | 70 | 290 | 8.0 | 12.0 | 0.00 | 0.00 | 0.00 | 59 | 1025.9 |
| 20260905133106 | 69 | 294 | 7.0 | 13.0 | 0.00 | 0.00 | 0.00 | 57 | 1026.0 |
| 20260905132558 | 69 | 309 | 6.0 | 15.0 | 0.00 | 0.00 | 0.00 | 58 | 1025.8 |
| 20260905132059 | 69 | 321 | 6.0 | 15.0 | 0.00 | 0.00 | 0.00 | 59 | 1025.8 |
| 20260905131604 | 69 | 342 | 9.0 | 15.0 | 0.00 | 0.00 | 0.00 | 57 | 1025.8 |
| 20260905131103 | 70 | 258 | 8.0 | 14.0 | 0.00 | 0.00 | 0.00 | 59 | 1025.6 |
| 20260905130559 | 69 | 304 | 6.0 | 14.0 | 0.00 | 0.00 | 0.00 | 60 | 1025.7 |
| 20260905130104 | 69 | 299 | 7.0 | 14.0 | 0.00 | 0.00 | 0.00 | 59 | 1025.6 |
| 20260905125558 | 68 | 360 | 7.0 | 14.0 | 0.00 | 0.00 | 0.00 | 60 | 1025.6 |
| 20260905125058 | 68 | 266 | 8.0 | 14.0 | 0.00 | 0.00 | 0.00 | 60 | 1025.6 |
| 20260905124605 | 68 | 315 | 7.0 | 14.0 | 0.00 | 0.00 | 0.00 | 60 | 1025.6 |
| 20260905124059 | 68 | 313 | 5.0 | 14.0 | 0.00 | 0.00 | 0.00 | 62 | 1025.5 |
| 20260905123558 | 68 | 298 | 10.0 | 14.0 | 0.00 | 0.00 | 0.00 | 60 | 1025.6 |
| 20260905123110 | 69 | 304 | 7.0 | 13.0 | 0.00 | 0.00 | 0.00 | 59 | 1025.7 |
| 20260905122559 | 69 | 294 | 6.0 | 13.0 | 0.00 | 0.00 | 0.00 | 60 | 1025.6 |
| 20260905122059 | 69 | 289 | 8.0 | 13.0 | 0.00 | 0.00 | 0.00 | 59 | 1025.7 |
| 20260905121606 | 68 | 328 | 6.0 | 13.0 | 0.00 | 0.00 | 0.00 | 60 | 1025.5 |
| 20260905121059 | 67 | 300 | 5.0 | 13.0 | 0.00 | 0.00 | 0.00 | 60 | 1025.5 |
| 20260905120559 | 68 | 248 | 6.0 | 15.0 | 0.00 | 0.00 | 0.00 | 59 | 1025.5 |
| 20260905120106 | 68 | 312 | 7.0 | 15.0 | 0.00 | 0.00 | 0.00 | 59 | 1025.6 |
| 20260905115558 | 68 | 300 | 9.0 | 15.0 | 0.00 | 0.00 | 0.00 | 59 | 1025.5 |
| 20260905115058 | 67 | 319 | 8.0 | 13.0 | 0.00 | 0.00 | 0.00 | 59 | 1025.4 |
| 20260905114606 | 67 | 327 | 6.0 | 13.0 | 0.00 | 0.00 | 0.00 | 59 | 1025.4 |
| 20260905114058 | 68 | 300 | 7.0 | 13.0 | 0.00 | 0.00 | 0.00 | 60 | 1025.6 |
| 20260905113559 | 67 | 291 | 7.0 | 15.0 | 0.00 | 0.00 | 0.00 | 60 | 1025.5 |
| 20260905113100 | 68 | 302 | 9.0 | 15.0 | 0.00 | 0.00 | 0.00 | 58 | 1025.3 |
| 20260905112559 | 67 | 325 | 8.0 | 14.0 | 0.00 | 0.00 | 0.00 | 59 | 1025.2 |
| 20260905112100 | 68 | 315 | 6.0 | 14.0 | 0.00 | 0.00 | 0.00 | 58 | 1025.2 |
| 20260905111605 | 68 | 351 | 7.0 | 15.0 | 0.00 | 0.00 | 0.00 | 59 | 1025.3 |